TimeCDT,TemperatureF,Dew PointF,Humidity,Sea Level PressureIn,VisibilityMPH,Wind Direction,Wind SpeedMPH,Gust SpeedMPH,PrecipitationIn,Events,Conditions,WindDirDegrees,DateUTC
12:15 AM,44.6,44.6,100,29.95,4.0,NE,11.5,-,N/A,,Mostly Cloudy,50,2013-04-09 05:15:00
12:35 AM,44.6,44.6,100,29.96,3.0,NE,12.7,-,N/A,,Overcast,50,2013-04-09 05:35:00
12:55 AM,42.8,42.8,100,29.95,3.0,NE,12.7,-,N/A,,Overcast,40,2013-04-09 05:55:00
1:15 AM,42.8,42.8,100,29.95,2.5,NE,15.0,-,N/A,,Overcast,50,2013-04-09 06:15:00
1:35 AM,42.8,42.8,100,29.94,2.0,NE,13.8,-,N/A,,Overcast,50,2013-04-09 06:35:00
1:55 AM,42.8,42.8,100,29.94,2.5,ENE,12.7,18.4,N/A,,Overcast,60,2013-04-09 06:55:00
2:15 AM,42.8,42.8,100,29.95,1.8,ENE,9.2,-,N/A,,Overcast,70,2013-04-09 07:15:00
2:35 AM,42.8,42.8,100,29.94,1.5,ENE,10.4,16.1,N/A,Thunderstorm,Overcast,60,2013-04-09 07:35:00
2:55 AM,42.8,42.8,100,29.94,0.5,ENE,10.4,17.3,N/A,Fog-Thunderstorm,Fog,60,2013-04-09 07:55:00
3:15 AM,42.8,42.8,100,29.94,0.2,NE,10.4,-,N/A,Fog,Fog,50,2013-04-09 08:15:00
3:35 AM,42.8,42.8,100,29.94,0.5,NE,15.0,-,N/A,Fog,Fog,40,2013-04-09 08:35:00
3:55 AM,41.0,41.0,100,29.94,0.2,NE,13.8,21.9,N/A,Fog,Fog,50,2013-04-09 08:55:00
4:15 AM,41.0,41.0,100,29.93,0.2,ENE,10.4,21.9,N/A,Fog-Thunderstorm,Fog,70,2013-04-09 09:15:00
4:35 AM,41.0,41.0,100,29.92,0.2,ENE,18.4,23.0,N/A,Thunderstorm,Unknown,70,2013-04-09 09:35:00
4:55 AM,41.0,41.0,100,29.93,0.2,ENE,12.7,19.6,N/A,Thunderstorm,Unknown,60,2013-04-09 09:55:00
5:15 AM,41.0,41.0,100,29.91,0.8,NE,15.0,19.6,N/A,Rain,Light Rain,50,2013-04-09 10:15:00
5:35 AM,41.0,41.0,100,29.92,1.8,ENE,11.5,-,0.02,Rain-Thunderstorm,Rain,70,2013-04-09 10:35:00
5:55 AM,41.0,41.0,100,29.92,2.5,NE,13.8,19.6,0.08,Rain-Thunderstorm,Thunderstorms and Rain,50,2013-04-09 10:55:00
6:15 AM,41.0,41.0,100,29.92,1.2,ENE,12.7,18.4,0.17,Rain-Thunderstorm,Light Thunderstorms and Rain,70,2013-04-09 11:15:00
6:35 AM,41.0,41.0,100,29.94,1.5,East,16.1,21.9,0.35,Rain-Thunderstorm,Light Thunderstorms and Rain,80,2013-04-09 11:35:00
6:55 AM,39.2,39.2,100,29.93,2.0,ENE,15.0,19.6,0.52,Rain-Thunderstorm,Heavy Thunderstorms and Rain,70,2013-04-09 11:55:00
7:15 AM,39.2,39.2,100,29.90,2.5,East,11.5,21.9,0.06,Rain-Thunderstorm,Rain,80,2013-04-09 12:15:00
7:35 AM,41.0,41.0,100,29.92,1.5,North,12.7,16.1,0.08,Rain-Thunderstorm,Light Thunderstorms and Rain,350,2013-04-09 12:35:00
7:55 AM,41.0,41.0,100,29.93,4.0,NNE,10.4,-,0.10,Rain,Light Rain,20,2013-04-09 12:55:00
8:15 AM,41.0,41.0,100,29.91,1.5,NE,11.5,-,0.09,Rain,Heavy Rain,50,2013-04-09 13:15:00
8:35 AM,41.0,41.0,100,29.93,1.2,North,11.5,-,0.18,Rain-Thunderstorm,Rain,10,2013-04-09 13:35:00
8:55 AM,41.0,41.0,100,29.92,5.0,NNE,16.1,19.6,0.19,,Drizzle,20,2013-04-09 13:55:00
9:15 AM,41.0,41.0,100,29.90,7.0,NE,13.8,-,N/A,,Overcast,50,2013-04-09 14:15:00
9:35 AM,41.0,41.0,100,29.89,3.0,ENE,13.8,18.4,N/A,,Light Drizzle,60,2013-04-09 14:35:00
9:55 AM,41.0,41.0,100,29.88,5.0,ENE,5.8,-,0.01,Rain,Rain,70,2013-04-09 14:55:00
10:15 AM,42.8,42.8,100,29.87,4.0,East,9.2,-,0.01,,Drizzle,80,2013-04-09 15:15:00
10:35 AM,42.8,42.8,100,29.86,5.0,East,6.9,-,0.01,,Overcast,80,2013-04-09 15:35:00
10:55 AM,42.8,42.8,100,29.85,2.0,NE,11.5,-,0.01,,Overcast,50,2013-04-09 15:55:00
11:15 AM,42.8,42.8,100,29.84,3.0,ENE,12.7,-,N/A,,Overcast,60,2013-04-09 16:15:00
11:35 AM,44.6,44.6,100,29.85,5.0,ESE,6.9,19.6,N/A,Thunderstorm,Overcast,110,2013-04-09 16:35:00
11:55 AM,44.6,44.6,100,29.83,5.0,ENE,13.8,18.4,N/A,,Overcast,60,2013-04-09 16:55:00
12:15 PM,44.6,44.6,100,29.85,5.0,East,6.9,-,N/A,Thunderstorm,Overcast,80,2013-04-09 17:15:00
12:35 PM,44.6,44.6,100,29.87,0.5,North,-9999.0,-,0.18,Thunderstorm,Unknown,0,2013-04-09 17:35:00
12:55 PM,44.6,44.6,100,29.83,4.0,East,8.1,-,0.24,Rain-Thunderstorm,Heavy Thunderstorms and Rain,80,2013-04-09 17:55:00
1:15 PM,44.6,44.6,100,29.86,1.2,North,18.4,23.0,N/A,Rain-Thunderstorm,Light Thunderstorms and Rain,10,2013-04-09 18:15:00
1:35 PM,42.8,42.8,100,29.85,1.2,NNE,15.0,-,0.14,Rain-Thunderstorm,Thunderstorms and Rain,20,2013-04-09 18:35:00
1:55 PM,41.0,41.0,100,29.86,0.8,NNE,16.1,-,0.30,Rain-Thunderstorm,Light Thunderstorms and Rain,20,2013-04-09 18:55:00
2:15 PM,42.8,42.8,100,29.86,10.0,NNE,13.8,-,N/A,Thunderstorm,Thunderstorm,20,2013-04-09 19:15:00
2:35 PM,41.0,41.0,100,29.86,10.0,NNE,15.0,-,N/A,Rain-Thunderstorm,Light Thunderstorms and Rain,30,2013-04-09 19:35:00
2:55 PM,41.0,41.0,100,29.86,10.0,NE,15.0,-,N/A,Rain-Thunderstorm,Light Thunderstorms and Rain,40,2013-04-09 19:55:00
3:15 PM,41.0,41.0,100,29.87,10.0,NNE,17.3,23.0,N/A,,Overcast,30,2013-04-09 20:15:00
3:35 PM,41.0,41.0,100,29.88,10.0,NNE,17.3,25.3,N/A,,Overcast,30,2013-04-09 20:35:00
3:55 PM,41.0,41.0,100,29.88,10.0,NNE,18.4,-,N/A,,Overcast,30,2013-04-09 20:55:00
4:15 PM,41.0,41.0,100,29.88,5.0,NNE,20.7,-,N/A,,Overcast,30,2013-04-09 21:15:00
4:35 PM,41.0,41.0,100,29.89,5.0,NNE,21.9,-,N/A,Thunderstorm,Overcast,30,2013-04-09 21:35:00
4:55 PM,41.0,41.0,100,29.90,7.0,NNE,19.6,25.3,N/A,,Overcast,30,2013-04-09 21:55:00
5:15 PM,41.0,41.0,100,29.90,7.0,NNE,21.9,27.6,N/A,Rain,Light Rain,30,2013-04-09 22:15:00
5:35 PM,41.0,41.0,100,29.91,10.0,NNE,20.7,-,N/A,,Overcast,30,2013-04-09 22:35:00
5:55 PM,41.0,41.0,100,29.91,10.0,NE,21.9,28.8,N/A,,Overcast,40,2013-04-09 22:55:00
6:15 PM,41.0,41.0,100,29.92,10.0,NE,20.7,27.6,N/A,,Overcast,40,2013-04-09 23:15:00
6:35 PM,41.0,41.0,100,29.92,10.0,NE,23.0,26.5,N/A,,Overcast,40,2013-04-09 23:35:00
6:55 PM,41.0,41.0,100,29.92,10.0,NE,20.7,28.8,N/A,,Overcast,40,2013-04-09 23:55:00
7:15 PM,41.0,41.0,100,29.93,10.0,NE,18.4,24.2,N/A,,Overcast,40,2013-04-10 00:15:00
7:35 PM,41.0,41.0,100,29.93,10.0,NE,17.3,27.6,N/A,,Overcast,40,2013-04-10 00:35:00
7:55 PM,41.0,41.0,100,29.94,10.0,NE,18.4,24.2,N/A,,Overcast,40,2013-04-10 00:55:00
8:15 PM,39.2,39.2,100,29.96,10.0,NE,21.9,26.5,N/A,,Overcast,40,2013-04-10 01:15:00
8:35 PM,39.2,39.2,100,29.95,10.0,NE,23.0,29.9,N/A,,Overcast,40,2013-04-10 01:35:00
8:55 PM,37.4,37.4,100,29.94,10.0,NE,27.6,35.7,N/A,,Overcast,40,2013-04-10 01:55:00
9:55 PM,37.4,37.4,100,29.94,10.0,NE,23.0,29.9,N/A,,Overcast,50,2013-04-10 02:55:00
10:15 PM,37.4,37.4,100,29.95,10.0,NE,20.7,28.8,N/A,,Overcast,50,2013-04-10 03:15:00
10:35 PM,37.4,37.4,100,29.95,10.0,NE,21.9,27.6,N/A,,Overcast,50,2013-04-10 03:35:00
10:55 PM,37.4,37.4,100,29.95,10.0,NE,16.1,26.5,N/A,,Overcast,50,2013-04-10 03:55:00
11:15 PM,37.4,37.4,100,29.94,10.0,NE,18.4,26.5,N/A,,Overcast,50,2013-04-10 04:15:00
11:35 PM,37.4,37.4,100,29.94,10.0,ENE,13.8,23.0,N/A,,Overcast,60,2013-04-10 04:35:00
11:55 PM,37.4,37.4,100,29.93,10.0,NE,15.0,23.0,N/A,,Drizzle,50,2013-04-10 04:55:00